GSAT0203 (GALILEO 7) (40544 NORAD) Tracking and Keplerian Element Data

This shows tracking and keplerian element data for the satellite.

Feedback or suggestion? Click here.




ElementValue
Catalog40544
NameGSAT0203 (GALILEO 7)
Epoch Orbit5873
Epoch Day285.05943433
Epoch Year2024
RAAN358.3212
Inclination56.9187
Eccentricity0.0005067
Argument of Perigee246.7036
Mean Anonmoly113.297
Mean Motion1.70476162
Decay Rate-7.8E-07
L11 40544U 15017A 24285.05943433 -.00000078 00000+0 00000+0 0 9997
L22 40544 56.9187 358.3212 0005067 246.7036 113.2970 1.70476162 58735



Live tracking and technical data element details for GSAT0203 (GALILEO 7) (NORAD 40544). GSAT0203 (GALILEO 7) can be tracked NOW for your location showing map with azimuth and elevation plus other details from your city location.







IsCatalogInMostPopularTable: catalog: 40544, numindb: 781
Update: records affected: 1



GetName: 40544 GSAT0203 (GALILEO 7)

Hit Count: updated at: Thu, 23 Jan 2025 15:19:47 GMT